This is the latest recevied weather packets stored in our database for station/object IZ1UQG-1. If no packets are shown the sender has not sent any weather packets the latest 1 day(s).
| Time | Temp. | Humidity | Pressure | Rain* | Wind** | Luminosity | Snow |
|---|---|---|---|---|---|---|---|
| 1778059433 | 14.44° C | 85% | 1007.6 hPa | 78.49 mm | - | - | - |
| 1778058833 | 14.44° C | 85% | 1007.6 hPa | 63.5 mm | - | - | - |
| 1778058533 | 14.44° C | 85% | 1007.4 hPa | 49.02 mm | - | - | - |
| 1778058233 | 14.44° C | 85% | 1007.4 hPa | 77.98 mm | - | - | - |
| 1778057933 | 14.44° C | 86% | 1007.3 hPa | 51.05 mm | - | - | - |
| 1778057633 | 14.44° C | 86% | 1007.4 hPa | 48.26 mm | - | - | - |
| 1778057033 | 14.44° C | 87% | 1007.6 hPa | 21.34 mm | - | - | - |
| 1778056433 | 14.44° C | 87% | 1007.4 hPa | 30.73 mm | - | - | - |
| 1778055833 | 14.44° C | 86% | 1007.4 hPa | 250.7 mm | - | - | - |
| 1778055233 | 13.89° C | 85% | 1007.6 hPa | 22.61 mm | - | - | - |
| 1778054633 | 13.89° C | 84% | 1007.7 hPa | 253.24 mm | - | - | - |
| 1778054033 | 13.33° C | 84% | 1007.8 hPa | 248.41 mm | - | - | - |
| 1778053433 | 13.33° C | 84% | 1007.8 hPa | 246.38 mm | - | - | - |
| 1778053133 | 13.33° C | 84% | 1007.9 hPa | 229.87 mm | - | - | - |
| 1778051933 | 13.33° C | 84% | 1008.3 hPa | 209.04 mm | - | - | - |
| 1778051033 | 13.33° C | 85% | 1008.1 hPa | 208.03 mm | - | - | - |
| 1778050434 | 13.33° C | 84% | 1008.3 hPa | 186.94 mm | - | - | - |
| 1778050134 | 13.33° C | 84% | 1008.3 hPa | 170.69 mm | - | - | - |
| 1778049534 | 13.33° C | 84% | 1008.1 hPa | 154.18 mm | - | - | - |
| 1778049234 | 13.33° C | 84% | 1008.2 hPa | 161.04 mm | - | - | - |
| 1778048634 | 13.33° C | 84% | 1008.2 hPa | 158.5 mm | - | - | - |
| 1778048334 | 13.33° C | 84% | 1008.2 hPa | 153.67 mm | - | - | - |
| 1778048034 | 13.33° C | 84% | 1008.1 hPa | 156.21 mm | - | - | - |
| 1778047734 | 13.33° C | 83% | 1008.2 hPa | 148.59 mm | - | - | - |
| 1778047434 | 13.33° C | 83% | 1008.3 hPa | 154.69 mm | - | - | - |
* Rain latest hour (hover to see other rain measurements)
** Current wind speed in m/s (hover to see current wind gust speed)